Terminal Aerodrome Forecast
Issued by NWS Cleveland, OH

Home | Current Version | Previous Version | Graphics & Text | Print | Product List | Glossary On
Versions: 1 2 3 4 5 6 7 8 9 10 11 12 13 14 15 16 17 18 19 20 21 22 23 24 25
000
FTUS41 KCLE 271741
TAFCLE
TAF
KCLE 271741Z 2718/2824 04008KT 6SM -SHRA BR SCT008 OVC015
      TEMPO 2718/2719 1SM TSRA BR BKN004 OVC008CB
     FM272000 05015G25KT P6SM SCT015 OVC025
      TEMPO 2720/2723 2SM SHRA BR OVC008
     FM272300 01015G25KT P6SM VCSH SCT008 OVC015
     FM281100 36012KT 5SM -SHRA BR OVC003=

USA.gov is the U.S. government's official web portal to all federal, state and local government web resources and services.